This is the latest recevied weather packets stored in our database for station/object N0QV. If no packets are shown the sender has not sent any weather packets the latest 10 day(s).
| Time | Temp. | Humidity | Pressure | Rain* | Wind** | Luminosity | Snow |
|---|---|---|---|---|---|---|---|
| 1788382033 | 32.78° C | 56% | 1011 hPa | 0 mm | - | 488 W/m² | - |
| 1788381728 | 32.78° C | 57% | 1011.2 hPa | 0 mm | - | 475 W/m² | - |
| 1788381423 | 32.22° C | 56% | 1011.2 hPa | 0 mm | - | 463 W/m² | - |
| 1788381118 | 32.78° C | 57% | 1011.1 hPa | 0 mm | - | 525 W/m² | - |
| 1788380813 | 32.22° C | 57% | 1011.2 hPa | 0 mm | - | 530 W/m² | - |
| 1788380509 | 32.22° C | 58% | 1011.4 hPa | 0 mm | - | 515 W/m² | - |
| 1788380206 | 32.22° C | 60% | 1011.5 hPa | 0 mm | - | 559 W/m² | - |
| 1788379904 | 31.67° C | 58% | 1011.5 hPa | 0 mm | - | 571 W/m² | - |
| 1788379599 | 31.67° C | 61% | 1011.6 hPa | 0 mm | - | 562 W/m² | - |
| 1788379295 | 31.67° C | 61% | 1011.6 hPa | 0 mm | - | 533 W/m² | - |
| 1788378991 | 31.67° C | 62% | 1011.7 hPa | 0 mm | - | 543 W/m² | - |
| 1788378690 | 31.67° C | 61% | 1011.8 hPa | 0 mm | - | 542 W/m² | - |
| 1788378389 | 32.22° C | 59% | 1011.5 hPa | 0 mm | - | 586 W/m² | - |
| 1788378084 | 32.22° C | 59% | 1011.6 hPa | 0 mm | - | 599 W/m² | - |
| 1788377780 | 31.67° C | 58% | 1011.6 hPa | 0 mm | - | 588 W/m² | - |
| 1788377481 | 31.67° C | 58% | 1011.6 hPa | 0 mm | - | 586 W/m² | - |
| 1788377179 | 31.67° C | 59% | 1011.9 hPa | 0 mm | - | 559 W/m² | - |
| 1788376878 | 31.11° C | 61% | 1011.6 hPa | 0 mm | - | 560 W/m² | - |
| 1788376574 | 31.11° C | 61% | 1011.6 hPa | 0 mm | - | 614 W/m² | - |
| 1788376273 | 31.11° C | 64% | 1011.8 hPa | 0 mm | - | 393 W/m² | - |
| 1788375969 | 30.56° C | 60% | 1011.7 hPa | 0 mm | - | 622 W/m² | - |
| 1788375664 | 30° C | 64% | 1011.7 hPa | 0 mm | - | 590 W/m² | - |
| 1788375360 | 30° C | 65% | 1011.9 hPa | 0 mm | - | 164 W/m² | - |
| 1788375056 | 30° C | 64% | 1011.7 hPa | 0 mm | - | 176 W/m² | - |
| 1788374750 | 29.44° C | 63% | 1011.8 hPa | 0 mm | - | 179 W/m² | - |
* Rain latest hour (hover to see other rain measurements)
** Current wind speed in m/s (hover to see current wind gust speed)